• Join FlightAware (Why Join?)
  • Login
  • US Flag 
06:03AM EST


 

Airport Tracker/Info


-or-


 

Live Flight TrackerFlight Track Log ✈ SWA1893 ✈ 28-May-2012 ✈ KBWI - KMHT

Flight Track Log - Related Links

Times and Time Zones

All times are in EDT time to prevent confusion due to time zone crossing. See the SWA1893 flight status page for this flight to view local times or setup timezone preferences in your user account.

Time Position Orientation Groundspeed Altitude Reporting Facility
EDT Latitude Longitude Course Direction KTS MPH feet Rate Location/Type
09:24PM 39.4193 -75.5802 255° West  Level FlightAware Approximate
09:25PM 39.5020 -75.5321 251° West  Level FlightAware Approximate
09:25PM 39.1747 -76.7403 94° East 174 200 1,800  Level Washington Center
09:30PM 39.1511 -76.2686 85° East 320 368 14,300 2,397 Climbing Washington Center
09:31PM 39.1600 -76.1431 82° East 339 390 16,100 1,900 Climbing Washington Center
09:32PM 39.1753 -76.0092 77° East 354 407 18,100 1,983 Climbing Washington Center
09:33PM 39.1986 -75.8781 48° Northeast 368 423 20,100 2,083 Climbing Washington Center
09:34PM 39.2694 -75.7767 36° Northeast 363 418 22,300 1,604 Climbing Washington Center
09:37PM 39.5164 -75.5478 36° Northeast 409 471 25,900 1,284 Climbing New York Center
09:38PM 39.6117 -75.4572 36° Northeast 423 487 26,900 1,210 Climbing New York Center
09:39PM 39.7114 -75.3639 37° Northeast 428 493 28,300 1,623 Climbing New York Center
09:40PM 39.8111 -75.2678 35° Northeast 434 499 30,200 1,563 Climbing New York Center
09:41PM 39.9103 -75.1767 37° Northeast 434 499 31,400 1,300 Climbing New York Center
09:42PM 40.0078 -75.0797 37° Northeast 434 499 32,800 1,377 Climbing New York Center
09:43PM 40.1028 -74.9853 36° Northeast 434 499 34,200 1,119 Climbing New York Center
09:44PM 40.2064 -74.8856 37° Northeast 427 491 35,000 353 Climbing New York Center
09:45PM 40.3056 -74.7881 37° Northeast 427 491 34,900 -50 Descending New York Center
09:46PM 40.4047 -74.6903 16° North 433 498 34,900 14 Level New York Center
09:52PM 41.1286 -74.4131 13° North 415 478 35,000  Climbing Boston Center
09:53PM 41.2481 -74.3753 18° North 426 490 34,900  Descending Boston Center
09:54PM 41.3531 -74.3289 15° North 426 490 35,000 50 Climbing Boston Center
09:55PM 41.4703 -74.2881 15° North 431 496 35,000 -450 Level Boston Center
09:56PM 41.6003 -74.2417 16° North 431 496 34,100 -950 Descending Boston Center
09:57PM 41.7178 -74.1978 15° North 436 502 33,100 -1,600 Descending Boston Center
09:58PM 41.8308 -74.1564 18° North 436 502 30,900 -2,300 Descending Boston Center
09:59PM 41.9464 -74.1064 50° Northeast 431 496 28,500 -1,600 Descending Boston Center
10:00PM 42.0272 -73.9772 57° Northeast 431 496 27,700 -800 Descending Boston Center
10:01PM 42.0981 -73.8278 58° Northeast 455 524 26,900 -950 Descending Boston Center
10:02PM 42.1708 -73.6697 57° Northeast 465 535 25,800 -1,150 Descending Boston Center
10:03PM 42.2389 -73.5253 58° Northeast 467 537 24,600 -1,150 Descending Boston Center
10:04PM 42.3006 -73.3917 59° Northeast 455 524 23,500 -1,100 Descending Boston Center
10:05PM 42.3600 -73.2550 57° Northeast 429 494 22,400 -1,000 Descending Boston Center
10:06PM 42.4211 -73.1292 58° Northeast 414 476 21,500 -950 Descending Boston Center
10:07PM 42.4783 -73.0031 60° Northeast 400 460 20,500 -1,000 Descending Boston Center
10:08PM 42.5350 -72.8711 59° Northeast 400 460 19,500 -750 Descending Boston Center
10:09PM 42.5917 -72.7447 57° Northeast 390 449 19,000 -250 Descending Boston Center
10:10PM 42.6461 -72.6319 59° Northeast 390 449 19,000 -1,000 Level Boston Center
10:11PM 42.7025 -72.5050 59° Northeast 390 449 17,000 -2,050 Descending Boston Center
10:12PM 42.7567 -72.3836 68° East 379 436 14,900 -2,200 Descending Boston Center
10:13PM 42.7983 -72.2419 84° East 373 429 12,600 -2,250 Descending Boston Center
10:14PM 42.8083 -72.1033 74° East 364 419 10,400 -1,350 Descending Boston Center
10:15PM 42.8331 -71.9869 46° Northeast 349 402 9,900 -1,150 Descending Boston Center
10:16PM 42.8931 -71.9017 50° Northeast 309 356 8,100 -1,600 Descending Boston Center
10:17PM 42.9467 -71.8133 47° Northeast 299 344 6,700 -1,600 Descending Boston Center
10:18PM 43.0025 -71.7303 50° Northeast 299 344 4,900 -1,450 Descending Boston Center
10:19PM 43.0561 -71.6417 55° Northeast 299 344 3,800 -850 Descending Boston Center
10:20PM 43.0994 -71.5558 111° Southeast 280 322 3,200 -500 Descending Boston Center
10:21PM 43.0800 -71.4878 183° South 188 216 2,800 -450 Descending Boston Center
10:22PM 43.0300 -71.4914 158° South 143 165 2,300 -650 Descending Boston Center
10:23PM 42.9903 -71.4694 157° South 150 173 1,500 -800 Descending Boston Center
10:24PM 42.9567 -71.4500 156° South 145 167 700 -550 Descending Boston Center
10:25PM 42.9211 -71.4281 159° South 140 161 400 9,150 Descending Boston Center
10:26PM 42.8833 -71.4086 156° South 140 161 19,000 9,300 Climbing Boston Center
10:27PM 42.8478 -71.3867 334° Northwest 140 161 19,000  Level Boston Center
10:34PM 42.9167 -71.4333 354° North  Level FlightAware Approximate
10:35PM 43.0261 -71.4498 174° South  Level Estimated
10:36PM 42.9167 -71.4333 354° North  Level FlightAware Approximate
10:37PM 43.0261 -71.4498 354° North  Level Estimated